Skip Page Navigation
NASA JPL Caltech
NASA Logo - Jet Propulsion Laboratory + View the NASA Portal
+ Center for Near-Earth Object Studies
JPL Home Earth Solar System Stars & Galaxies Technology
JPL Solar System Dynamics
BODIES ORBITS EPHEMERIDES TOOLS PHYSICAL DATA DISCOVERY FAQ SITE MAP
IMPORTANT: The SSD Announcement email list is now available. Major changes are coming in the near future, including possible hostname and/or URL changes. To be notified of such changes, subscribe to this email list.

Please visit this page for more details.


JPL Small-Body Database Browser
Search: [ help ]  
18307 (1981 ER10)
Classification: Main-belt Asteroid          SPK-ID: 2018307
Ephemeris | Orbit Diagram | Orbital Elements | Mission Design | Physical Parameters | Discovery Circumstances ]

[ show orbit diagram ]
Orbital Elements at Epoch 2458600.5 (2019-Apr-27.0) TDB
Reference: JPL 28 (heliocentric ecliptic J2000)
 Element Value Uncertainty (1-sigma)   Units 
e .1517257151224985 4.1118e-08  
a 2.280977660262535 9.0459e-09 au
q 1.934894693580758 9.3989e-08 au
i 2.235674157880424 4.0786e-06 deg
node 255.5194909397715 0.00010522 deg
peri 98.30054581726142 0.00010621 deg
M 206.6381477491825 1.7476e-05 deg
tp 2459136.537063059945
(2020-Oct-14.03706306)
6.2813e-05 TDB
period 1258.287767586295
3.45
7.4852e-06
2.049e-08
d
yr
n .2861030753645236 1.702e-09 deg/d
Q 2.627060626944311 1.0418e-08 au
  Orbit Determination Parameters
   # obs. used (total)      1503  
   data-arc span      14977 days (41.00 yr)  
   first obs. used      1978-05-09  
   last obs. used      2019-05-11  
   planetary ephem.      DE431  
   SB-pert. ephem.      SB431-N16  
   condition code      0  
   norm. resid. RMS      .50264  
   source      ORB  
   producer      Otto Matic  
   solution date      2019-May-30 02:35:35  

Additional Information
 Earth MOID = .93043 au 
 Jupiter MOID = 2.80141 au 
 T_jup = 3.589 
[ show covariance matrix ]

Ephemeris | Orbit Diagram | Orbital Elements | Mission Design | Physical Parameters | Discovery Circumstances ]

Physical Parameter Table
Parameter Symbol Value Units Sigma Reference Notes
absolute magnitude H 14.7   n/a MPO337413  
diameter diameter 2.839 km 0.517 urn:nasa:pds:neowise_diameters_albedos::2.0[mainbelt] (http://adsabs.harvard.edu/abs/2012ApJ...759L...8M)  
rotation period rot_per 60.792 h n/a LCDB (Rev. 2019-January); Warner et al., 2009 Result based on less than full coverage, so that the period may be wrong by 30 percent or so.
Published Reference List:
[Waszczak, A.; Chang, C.-K.; Ofeck, E.O.; Laher, F.; et al. (2015) Astron. J. 150, A75.]
geometric albedo albedo 0.321   0.255 urn:nasa:pds:neowise_diameters_albedos::2.0[mainbelt] (http://adsabs.harvard.edu/abs/2012ApJ...759L...8M)  

18307 (1981 ER10)          Discovered 1981-Mar-01 by Bus, S. J. at Siding Spring
Reference: 20001111/Numbers.arcLast Updated: 2004-04-19

Alternate Designations
 1981 ER10 = 1996 TP49 
Ephemeris | Orbit Diagram | Orbital Elements | Mission Design | Physical Parameters | Discovery Circumstances ]
ABOUT SSD CREDITS/AWARDS PRIVACY/COPYRIGHT GLOSSARY LINKS
FirstGov 2020-Jan-27 03:11 UT
(server date/time)  
NASA Home Page
Site Manager:   Ryan S. Park
Webmaster  Alan B. Chamberlin